Regional Weather Roundup
Issued by NWS

Home | Current Version | Previous Version | Graphics & Text | Print | Product List | Glossary On
Versions: 1 2 3 4 5 6 7 8 9 10 11 12 13 14 15 16 17 18 19 20 21 22 23 24 25 26 27 28 29 30 31 32 33 34 35 36 37 38 39 40 41 42 43 44 45 46 47 48 49 50
000
ASUS43 KFSD 060110
RWRSD

WEATHER ROUNDUP FOR SOUTH DAKOTA
NATIONAL WEATHER SERVICE SIOUX FALLS SD
800 PM CDT SUN JUL 05 2015

NOTE: "FAIR" INDICATES FEW OR NO CLOUDS BELOW 12,000 FEET WITH NO
SIGNIFICANT WEATHER AND/OR OBSTRUCTIONS TO VISIBILITY.


SDZ001>005-009-010-012>017-060200-
NORTHWEST AND NORTH CENTRAL SOUTH DAKOTA

CITY           SKY/WX    TMP DP  RH WIND       PRES   REMARKS
BUFFALO          N/A     64  55  72 N9        30.01R
FAITH            N/A     64  60  87 N12       29.98R
MOBRIDGE       CLOUDY    70  67  90 N20       29.86F FOG
$$

SDZ012>016-024>037-041>051-057-063-072>074-060200-
SOUTHWEST AND SOUTH CENTRAL SOUTH DAKOTA

CITY           SKY/WX    TMP DP  RH WIND       PRES   REMARKS
RAPID CTY ARPT LGT RAIN  64  62  93 N29G36    29.97F
PIERRE         PTSUNNY   75  64  68 N26G38    29.78S
CUSTER         LGT RAIN  60  57  89 N13G23    30.06F FOG
ELLSWORTH AFB  LGT RAIN  64  64  99 N24G35    29.98
PHILIP         CLOUDY    74  64  71 N28G38    29.87R
PINE RIDGE     CLOUDY    72  60  66 N13G21    29.89S
SPEARFISH      LGT RAIN  59  59 100 N12       30.10R
WINNER         FAIR      87  70  56 E14       29.71S
$$

SDZ004>011-016>023-039-040-060200-
NORTHEAST SOUTH DAKOTA

CITY           SKY/WX    TMP DP  RH WIND       PRES   REMARKS
ABERDEEN       CLOUDY    78  66  66 N21       29.80R
WATERTOWN      MOSUNNY   82  70  66 S16       29.72F
BROOKINGS      MOSUNNY   82  72  69 S16       29.77F
SISSETON         N/A     82  70  66 N17G24    29.74S
$$

SDZ017-020-022-023-036>040-048>070-060200-
SOUTHEAST SOUTH DAKOTA

CITY           SKY/WX    TMP DP  RH WIND       PRES   REMARKS
SIOUX FALLS    PTSUNNY   84  73  69 S15       29.77S
HURON          CLOUDY    84  74  71 SE5       29.70F
CHAMBERLAIN    PTSUNNY   83  74  75 E6        29.72R
MITCHELL       PTSUNNY   86  74  67 S14       29.70F
YANKTON        PTSUNNY   82  75  78 SE9       29.73F
$$

ABBREVIATIONS USED IN REMARKS
   TC - TEMPERATURE IN CELSIUS
  WCI - WIND CHILL INDEX
   HX - HEAT INDEX
  VSB - VISIBILITY



USA.gov is the U.S. government's official web portal to all federal, state and local government web resources and services.